Location: Newark
(50.8922°N, 11.6094°E)
Time: 10:30:41
(UTC+00:00)

N. Korean satellite - Pass Details

Date: 02 February 2020
Orbit: 456 x 505 km, 97.2° (Epoch: 19 February)

Event Time Altitude Azimuth Distance (km) Brightness Sun altitude
Rises 05:23:25 0° 10° (N) 2,564 10.2 -13.7°
Reaches altitude 10° 05:25:30 10° 8° (N) 1,687 9.3 -13.3°
Maximum altitude 05:29:06 68° 286° (WNW) 537 6.5 -12.8°
Drops below altitude 10° 05:32:44 10° 203° (SSW) 1,698 9.2 -12.2°
Sets 05:34:49 0° 201° (SSW) 2,582 10.2 -11.9°
